Time,TemperatureF,DewpointF,PressureIn,WindDirection,WindDirectionDegrees,WindSpeedMPH,WindSpeedGustMPH,Humidity,HourlyPrecipIn,Conditions,Clouds,dailyrainin,SoftwareType,DateUTC
2013-05-30 00:01:00,77.8,48.7,29.82,WNW,290,0.0,2.0,36,0.00,,---,0.00,VWS V14.01,2013-05-30 07:01:00,
2013-05-30 00:06:00,77.7,48.7,29.82,SW,235,2.0,2.0,36,0.00,,---,0.00,VWS V14.01,2013-05-30 07:06:00,
2013-05-30 00:11:00,77.6,49.3,29.83,WSW,247,0.0,1.0,37,0.00,,---,0.00,VWS V14.01,2013-05-30 07:11:00,
2013-05-30 00:16:00,77.5,49.2,29.83,WSW,242,0.0,0.0,37,0.00,,---,0.00,VWS V14.01,2013-05-30 07:16:00,
2013-05-30 00:21:00,77.2,48.9,29.83,WSW,242,0.0,0.0,37,0.00,,---,0.00,VWS V14.01,2013-05-30 07:21:00,
2013-05-30 00:26:00,76.9,48.7,29.83,WSW,242,0.0,2.0,37,0.00,,---,0.00,VWS V14.01,2013-05-30 07:26:00,
2013-05-30 00:31:00,76.7,48.5,29.83,West,274,0.0,0.0,37,0.00,,---,0.00,VWS V14.01,2013-05-30 07:31:00,
2013-05-30 00:36:00,76.6,48.4,29.83,West,274,0.0,0.0,37,0.00,,---,0.00,VWS V14.01,2013-05-30 07:36:00,
2013-05-30 00:41:00,76.4,48.9,29.83,West,274,0.0,0.0,38,0.00,,---,0.00,VWS V14.01,2013-05-30 07:41:00,
2013-05-30 00:46:00,75.7,48.3,29.83,West,274,0.0,1.0,38,0.00,,---,0.00,VWS V14.01,2013-05-30 07:46:00,
2013-05-30 00:51:00,75.1,48.5,29.83,West,274,0.0,0.0,39,0.00,,---,0.00,VWS V14.01,2013-05-30 07:51:00,
2013-05-30 00:56:00,74.7,48.8,29.83,West,274,0.0,1.0,40,0.00,,---,0.00,VWS V14.01,2013-05-30 07:56:00,
2013-05-30 01:01:00,74.4,49.2,29.84,West,274,0.0,0.0,41,0.00,,---,0.00,VWS V14.01,2013-05-30 08:01:00,
2013-05-30 01:06:00,74.2,49.0,29.84,West,274,0.0,0.0,41,0.00,,---,0.00,VWS V14.01,2013-05-30 08:06:00,
2013-05-30 01:11:00,73.9,49.4,29.84,WNW,295,0.0,1.0,42,0.00,,---,0.00,VWS V14.01,2013-05-30 08:11:00,
2013-05-30 01:16:00,73.6,49.1,29.84,NW,313,0.0,0.0,42,0.00,,---,0.00,VWS V14.01,2013-05-30 08:16:00,
2013-05-30 01:21:00,73.3,49.5,29.84,NW,313,0.0,0.0,43,0.00,,---,0.00,VWS V14.01,2013-05-30 08:21:00,
2013-05-30 01:26:00,73.2,49.4,29.84,NNW,335,0.0,0.0,43,0.00,,---,0.00,VWS V14.01,2013-05-30 08:26:00,
2013-05-30 01:31:00,73.1,50.5,29.84,NNW,335,0.0,0.0,45,0.00,,---,0.00,VWS V14.01,2013-05-30 08:31:00,
2013-05-30 01:36:00,72.8,50.2,29.84,NNW,335,0.0,0.0,45,0.00,,---,0.00,VWS V14.01,2013-05-30 08:36:00,
2013-05-30 01:41:00,72.5,50.0,29.84,NNW,335,0.0,0.0,45,0.00,,---,0.00,VWS V14.01,2013-05-30 08:41:00,
2013-05-30 01:46:00,72.3,49.8,29.84,NNW,335,0.0,0.0,45,0.00,,---,0.00,VWS V14.01,2013-05-30 08:46:00,
2013-05-30 01:51:00,72.2,50.3,29.84,ENE,67,0.0,1.0,46,0.00,,---,0.00,VWS V14.01,2013-05-30 08:51:00,
2013-05-30 01:56:00,72.3,49.8,29.84,East,80,0.0,0.0,45,0.00,,---,0.00,VWS V14.01,2013-05-30 08:56:00,
2013-05-30 02:01:00,72.2,50.3,29.84,East,80,0.0,0.0,46,0.00,,---,0.00,VWS V14.01,2013-05-30 09:01:00,
2013-05-30 02:06:00,72.3,51.0,29.84,NE,34,0.0,0.0,47,0.00,,---,0.00,VWS V14.01,2013-05-30 09:06:00,
2013-05-30 02:11:00,72.2,50.3,29.84,NE,34,0.0,0.0,46,0.00,,---,0.00,VWS V14.01,2013-05-30 09:11:00,
2013-05-30 02:16:00,72.1,50.8,29.84,NE,34,0.0,1.0,47,0.00,,---,0.00,VWS V14.01,2013-05-30 09:16:00,
2013-05-30 02:21:00,72.1,51.3,29.84,NE,34,0.0,1.0,48,0.00,,---,0.00,VWS V14.01,2013-05-30 09:21:00,
2013-05-30 02:26:00,72.5,51.2,29.84,NE,34,0.0,0.0,47,0.00,,---,0.00,VWS V14.01,2013-05-30 09:26:00,
2013-05-30 02:31:00,72.5,51.2,29.83,NE,34,0.0,0.0,47,0.00,,---,0.00,VWS V14.01,2013-05-30 09:31:00,
2013-05-30 02:36:00,72.2,52.0,29.83,NE,34,0.0,0.0,49,0.00,,---,0.00,VWS V14.01,2013-05-30 09:36:00,
2013-05-30 02:41:00,71.6,51.5,29.84,NE,34,0.0,0.0,49,0.00,,---,0.00,VWS V14.01,2013-05-30 09:41:00,
2013-05-30 02:46:00,71.1,51.0,29.84,NE,34,0.0,0.0,49,0.00,,---,0.00,VWS V14.01,2013-05-30 09:46:00,
2013-05-30 02:51:00,70.7,50.6,29.84,NE,34,0.0,0.0,49,0.00,,---,0.00,VWS V14.01,2013-05-30 09:51:00,
2013-05-30 02:56:00,70.3,50.8,29.84,NE,34,0.0,0.0,50,0.00,,---,0.00,VWS V14.01,2013-05-30 09:56:00,
2013-05-30 03:01:00,69.8,50.3,29.84,NE,34,0.0,1.0,50,0.00,,---,0.00,VWS V14.01,2013-05-30 10:01:00,
2013-05-30 03:06:00,69.5,50.1,29.85,NE,34,0.0,0.0,50,0.00,,---,0.00,VWS V14.01,2013-05-30 10:06:00,
2013-05-30 03:11:00,69.3,50.4,29.85,NE,34,0.0,0.0,51,0.00,,---,0.00,VWS V14.01,2013-05-30 10:11:00,
2013-05-30 03:16:00,69.1,50.8,29.85,NE,34,0.0,0.0,52,0.00,,---,0.00,VWS V14.01,2013-05-30 10:16:00,
2013-05-30 03:21:00,69.0,50.7,29.85,NE,34,0.0,0.0,52,0.00,,---,0.00,VWS V14.01,2013-05-30 10:21:00,
2013-05-30 03:26:00,68.7,50.4,29.85,NE,34,0.0,0.0,52,0.00,,---,0.00,VWS V14.01,2013-05-30 10:26:00,
2013-05-30 03:31:00,68.5,50.2,29.86,NE,34,0.0,0.0,52,0.00,,---,0.00,VWS V14.01,2013-05-30 10:31:00,
2013-05-30 03:36:00,68.3,50.0,29.86,NE,34,0.0,0.0,52,0.00,,---,0.00,VWS V14.01,2013-05-30 10:36:00,
2013-05-30 03:41:00,68.3,50.5,29.86,NE,34,0.0,1.0,53,0.00,,---,0.00,VWS V14.01,2013-05-30 10:41:00,
2013-05-30 03:46:00,68.2,50.9,29.86,NE,34,0.0,1.0,54,0.00,,---,0.00,VWS V14.01,2013-05-30 10:46:00,
2013-05-30 03:51:00,68.4,51.1,29.86,SE,133,0.0,0.0,54,0.00,,---,0.00,VWS V14.01,2013-05-30 10:51:00,
2013-05-30 03:56:00,68.5,50.7,29.86,SE,133,0.0,1.0,53,0.00,,---,0.00,VWS V14.01,2013-05-30 10:56:00,
2013-05-30 04:01:00,68.5,50.7,29.86,SE,133,0.0,0.0,53,0.00,,---,0.00,VWS V14.01,2013-05-30 11:01:00,
2013-05-30 04:06:00,68.6,50.8,29.86,ESE,117,0.0,1.0,53,0.00,,---,0.00,VWS V14.01,2013-05-30 11:06:00,
2013-05-30 04:11:00,68.8,51.0,29.87,ENE,60,0.0,1.0,53,0.00,,---,0.00,VWS V14.01,2013-05-30 11:11:00,
2013-05-30 04:16:00,69.1,51.3,29.86,ENE,61,0.0,0.0,53,0.00,,---,0.00,VWS V14.01,2013-05-30 11:16:00,
2013-05-30 04:21:00,69.2,51.4,29.86,ENE,61,0.0,0.0,53,0.00,,---,0.00,VWS V14.01,2013-05-30 11:21:00,
2013-05-30 04:26:00,69.1,51.3,29.86,ENE,61,0.0,0.0,53,0.00,,---,0.00,VWS V14.01,2013-05-30 11:26:00,
2013-05-30 04:31:00,68.8,51.5,29.87,ENE,61,0.0,0.0,54,0.00,,---,0.00,VWS V14.01,2013-05-30 11:31:00,
2013-05-30 04:36:00,68.4,51.6,29.87,ENE,61,0.0,0.0,55,0.00,,---,0.00,VWS V14.01,2013-05-30 11:36:00,
2013-05-30 04:41:00,68.1,51.3,29.87,ENE,61,0.0,0.0,55,0.00,,---,0.00,VWS V14.01,2013-05-30 11:41:00,
2013-05-30 04:46:00,67.9,51.6,29.87,ENE,61,0.0,1.0,56,0.00,,---,0.00,VWS V14.01,2013-05-30 11:46:00,
2013-05-30 04:51:00,67.7,51.0,29.87,ENE,61,0.0,1.0,55,0.00,,---,0.00,VWS V14.01,2013-05-30 11:51:00,
2013-05-30 04:56:00,67.7,51.5,29.87,ENE,61,0.0,0.0,56,0.00,,---,0.00,VWS V14.01,2013-05-30 11:56:00,
2013-05-30 05:01:00,67.8,51.5,29.87,ENE,61,0.0,0.0,56,0.00,,---,0.00,VWS V14.01,2013-05-30 12:01:00,
2013-05-30 05:06:00,68.0,52.2,29.87,ENE,61,0.0,0.0,57,0.00,,---,0.00,VWS V14.01,2013-05-30 12:06:00,
2013-05-30 05:11:00,68.1,51.8,29.87,ENE,61,0.0,0.0,56,0.00,,---,0.00,VWS V14.01,2013-05-30 12:11:00,
2013-05-30 05:16:00,68.1,51.8,29.88,ENE,61,0.0,0.0,56,0.00,,---,0.00,VWS V14.01,2013-05-30 12:16:00,
2013-05-30 05:21:00,68.0,52.2,29.88,ENE,61,0.0,0.0,57,0.00,,---,0.00,VWS V14.01,2013-05-30 12:21:00,
2013-05-30 05:26:00,68.1,52.3,29.88,ENE,61,0.0,0.0,57,0.00,,---,0.00,VWS V14.01,2013-05-30 12:26:00,
2013-05-30 05:31:00,68.0,52.2,29.88,ENE,61,0.0,0.0,57,0.00,,---,0.00,VWS V14.01,2013-05-30 12:31:00,
2013-05-30 05:36:00,67.9,52.6,29.88,ENE,61,0.0,0.0,58,0.00,,---,0.00,VWS V14.01,2013-05-30 12:36:00,
2013-05-30 05:41:00,67.8,52.5,29.88,ENE,61,0.0,0.0,58,0.00,,---,0.00,VWS V14.01,2013-05-30 12:41:00,
2013-05-30 05:46:00,67.7,52.4,29.88,ENE,61,0.0,0.0,58,0.00,,---,0.00,VWS V14.01,2013-05-30 12:46:00,
2013-05-30 05:51:00,67.9,52.6,29.88,ENE,61,0.0,0.0,58,0.00,,---,0.00,VWS V14.01,2013-05-30 12:51:00,
2013-05-30 05:56:00,68.1,53.2,29.89,ENE,61,0.0,0.0,59,0.00,,---,0.00,VWS V14.01,2013-05-30 12:56:00,
2013-05-30 06:01:00,68.6,52.8,29.89,ENE,61,0.0,0.0,57,0.00,,---,0.00,VWS V14.01,2013-05-30 13:01:00,
2013-05-30 06:06:00,69.3,53.0,29.89,ENE,61,0.0,1.0,56,0.00,,---,0.00,VWS V14.01,2013-05-30 13:06:00,
2013-05-30 06:11:00,69.9,53.0,29.89,ENE,61,0.0,0.0,55,0.00,,---,0.00,VWS V14.01,2013-05-30 13:11:00,
2013-05-30 06:16:00,71.0,54.0,29.89,ENE,61,0.0,0.0,55,0.00,,---,0.00,VWS V14.01,2013-05-30 13:16:00,
2013-05-30 06:21:00,72.2,54.1,29.89,ENE,61,0.0,1.0,53,0.00,,---,0.00,VWS V14.01,2013-05-30 13:21:00,
2013-05-30 06:26:00,73.2,55.6,29.89,ENE,61,0.0,0.0,54,0.00,,---,0.00,VWS V14.01,2013-05-30 13:26:00,
2013-05-30 06:31:00,73.7,53.9,29.89,WNW,282,0.0,1.0,50,0.00,,---,0.00,VWS V14.01,2013-05-30 13:31:00,
2013-05-30 06:36:00,73.9,54.7,29.90,WNW,282,0.0,0.0,51,0.00,,---,0.00,VWS V14.01,2013-05-30 13:36:00,
2013-05-30 06:41:00,74.3,54.5,29.90,WNW,282,0.0,1.0,50,0.00,,---,0.00,VWS V14.01,2013-05-30 13:41:00,
2013-05-30 06:46:00,74.7,54.3,29.90,WNW,282,0.0,1.0,49,0.00,,---,0.00,VWS V14.01,2013-05-30 13:46:00,
2013-05-30 06:51:00,75.1,55.2,29.90,WNW,282,0.0,0.0,50,0.00,,---,0.00,VWS V14.01,2013-05-30 13:51:00,
2013-05-30 06:56:00,75.6,54.5,29.90,WNW,282,0.0,0.0,48,0.00,,---,0.00,VWS V14.01,2013-05-30 13:56:00,
2013-05-30 07:01:00,76.2,54.5,29.90,WNW,282,0.0,0.0,47,0.00,,---,0.00,VWS V14.01,2013-05-30 14:01:00,
2013-05-30 07:06:00,77.4,54.4,29.90,WNW,283,0.0,0.0,45,0.00,,---,0.00,VWS V14.01,2013-05-30 14:06:00,
2013-05-30 07:11:00,78.0,53.7,29.90,WNW,282,0.0,0.0,43,0.00,,---,0.00,VWS V14.01,2013-05-30 14:11:00,
2013-05-30 07:16:00,78.7,53.7,29.90,WNW,282,1.0,1.0,42,0.00,,---,0.00,VWS V14.01,2013-05-30 14:16:00,
2013-05-30 07:21:00,78.9,53.2,29.90,WNW,283,0.0,0.0,41,0.00,,---,0.00,VWS V14.01,2013-05-30 14:21:00,
2013-05-30 07:26:00,79.1,53.4,29.91,WNW,282,0.0,1.0,41,0.00,,---,0.00,VWS V14.01,2013-05-30 14:26:00,
2013-05-30 07:31:00,79.7,53.3,29.91,West,264,0.0,1.0,40,0.00,,---,0.00,VWS V14.01,2013-05-30 14:31:00,
2013-05-30 07:36:00,79.8,52.0,29.91,NNW,328,0.0,5.0,38,0.00,,---,0.00,VWS V14.01,2013-05-30 14:36:00,
2013-05-30 07:41:00,79.5,53.1,29.91,West,275,0.0,0.0,40,0.00,,---,0.00,VWS V14.01,2013-05-30 14:41:00,
2013-05-30 07:46:00,79.7,52.6,29.91,WNW,302,0.0,0.0,39,0.00,,---,0.00,VWS V14.01,2013-05-30 14:46:00,
2013-05-30 07:51:00,80.0,52.1,29.91,NW,313,0.0,1.0,38,0.00,,---,0.00,VWS V14.01,2013-05-30 14:51:00,
2013-05-30 07:55:00,80.2,51.6,29.92,WNW,302,0.0,2.0,37,0.00,,---,0.00,VWS V14.01,2013-05-30 14:55:00,
2013-05-30 08:00:00,80.6,52.7,29.92,SSW,197,0.0,0.0,38,0.00,,---,0.00,VWS V14.01,2013-05-30 15:00:00,
2013-05-30 08:05:00,81.4,51.9,29.92,East,98,0.0,1.0,36,0.00,,---,0.00,VWS V14.01,2013-05-30 15:05:00,
2013-05-30 08:10:00,82.0,52.4,29.92,WNW,287,1.0,2.0,36,0.00,,---,0.00,VWS V14.01,2013-05-30 15:10:00,
2013-05-30 08:15:00,82.7,51.5,29.92,WNW,300,1.0,3.0,34,0.00,,---,0.00,VWS V14.01,2013-05-30 15:15:00,
2013-05-30 08:20:00,83.1,51.0,29.92,West,277,0.0,2.0,33,0.00,,---,0.00,VWS V14.01,2013-05-30 15:20:00,
2013-05-30 08:25:00,82.6,49.8,29.92,WSW,249,0.0,1.0,32,0.00,,---,0.00,VWS V14.01,2013-05-30 15:25:00,
2013-05-30 08:30:00,82.5,49.7,29.92,WSW,249,0.0,1.0,32,0.00,,---,0.00,VWS V14.01,2013-05-30 15:30:00,
2013-05-30 08:35:00,82.6,50.6,29.92,WNW,294,7.0,8.0,33,0.00,,---,0.00,VWS V14.01,2013-05-30 15:35:00,
2013-05-30 08:40:00,82.5,49.7,29.92,NW,313,3.0,4.0,32,0.00,,---,0.00,VWS V14.01,2013-05-30 15:40:00,
2013-05-30 08:45:00,82.8,50.0,29.92,SSW,207,3.0,4.0,32,0.00,,---,0.00,VWS V14.01,2013-05-30 15:45:00,
2013-05-30 08:50:00,82.7,50.7,29.92,SSE,163,0.0,0.0,33,0.00,,---,0.00,VWS V14.01,2013-05-30 15:50:00,
2013-05-30 08:55:00,82.8,50.0,29.92,WNW,292,0.0,1.0,32,0.00,,---,0.00,VWS V14.01,2013-05-30 15:55:00,
2013-05-30 09:00:00,83.3,49.5,29.92,SW,225,1.0,3.0,31,0.00,,---,0.00,VWS V14.01,2013-05-30 16:00:00,
2013-05-30 09:05:00,83.3,48.7,29.92,SSW,211,1.0,2.0,30,0.00,,---,0.00,VWS V14.01,2013-05-30 16:05:00,
2013-05-30 09:10:00,83.1,48.5,29.92,SW,223,0.0,1.0,30,0.00,,---,0.00,VWS V14.01,2013-05-30 16:10:00,
2013-05-30 09:15:00,83.2,49.5,29.91,East,80,0.0,0.0,31,0.00,,---,0.00,VWS V14.01,2013-05-30 16:15:00,
2013-05-30 09:20:00,84.2,49.4,29.91,West,266,1.0,1.0,30,0.00,,---,0.00,VWS V14.01,2013-05-30 16:20:00,
2013-05-30 09:25:00,84.6,49.8,29.91,West,268,3.0,3.0,30,0.00,,---,0.00,VWS V14.01,2013-05-30 16:25:00,
2013-05-30 09:30:00,84.3,48.6,29.91,SW,235,0.0,0.0,29,0.00,,---,0.00,VWS V14.01,2013-05-30 16:30:00,
2013-05-30 09:35:00,84.2,48.5,29.91,WSW,238,0.0,3.0,29,0.00,,---,0.00,VWS V14.01,2013-05-30 16:35:00,
2013-05-30 09:40:00,84.0,47.4,29.91,WSW,238,3.0,7.0,28,0.00,,---,0.00,VWS V14.01,2013-05-30 16:40:00,
2013-05-30 09:45:00,83.9,47.3,29.91,WSW,248,3.0,4.0,28,0.00,,---,0.00,VWS V14.01,2013-05-30 16:45:00,
2013-05-30 09:50:00,84.1,45.5,29.92,SW,216,0.0,3.0,26,0.00,,---,0.00,VWS V14.01,2013-05-30 16:50:00,
2013-05-30 09:55:00,84.5,45.9,29.92,SW,215,0.0,1.0,26,0.00,,---,0.00,VWS V14.01,2013-05-30 16:55:00,
2013-05-30 10:00:00,84.9,48.2,29.92,ENE,75,1.0,2.0,28,0.00,,---,0.00,VWS V14.01,2013-05-30 17:00:00,
2013-05-30 10:05:00,84.9,48.2,29.91,NE,49,1.0,3.0,28,0.00,,---,0.00,VWS V14.01,2013-05-30 17:05:00,
2013-05-30 10:10:00,84.8,48.1,29.91,NW,304,1.0,3.0,28,0.00,,---,0.00,VWS V14.01,2013-05-30 17:10:00,
2013-05-30 10:15:00,85.1,48.4,29.91,WSW,238,3.0,7.0,28,0.00,,---,0.00,VWS V14.01,2013-05-30 17:15:00,
2013-05-30 10:20:00,85.3,47.6,29.91,WNW,302,1.0,3.0,27,0.00,,---,0.00,VWS V14.01,2013-05-30 17:20:00,
2013-05-30 10:25:00,85.6,47.8,29.92,NW,326,0.0,0.0,27,0.00,,---,0.00,VWS V14.01,2013-05-30 17:25:00,
2013-05-30 10:30:00,86.1,47.2,29.91,SSW,203,1.0,6.0,26,0.00,,---,0.00,VWS V14.01,2013-05-30 17:30:00,
2013-05-30 10:35:00,86.4,46.5,29.91,WSW,244,0.0,4.0,25,0.00,,---,0.00,VWS V14.01,2013-05-30 17:35:00,
2013-05-30 10:40:00,86.6,47.7,29.92,NW,309,0.0,4.0,26,0.00,,---,0.00,VWS V14.01,2013-05-30 17:40:00,
2013-05-30 10:45:00,86.9,48.9,29.92,West,269,0.0,0.0,27,0.00,,---,0.00,VWS V14.01,2013-05-30 17:45:00,
2013-05-30 10:50:00,87.3,47.2,29.92,West,264,0.0,3.0,25,0.00,,---,0.00,VWS V14.01,2013-05-30 17:50:00,
2013-05-30 10:55:00,87.3,47.2,29.91,WSW,246,7.0,8.0,25,0.00,,---,0.00,VWS V14.01,2013-05-30 17:55:00,
2013-05-30 11:00:00,87.0,48.0,29.91,South,180,0.0,2.0,26,0.00,,---,0.00,VWS V14.01,2013-05-30 18:00:00,
2013-05-30 11:05:00,87.3,46.1,29.91,South,175,0.0,2.0,24,0.00,,---,0.00,VWS V14.01,2013-05-30 18:05:00,
2013-05-30 11:10:00,88.1,44.5,29.91,ESE,116,4.0,6.0,22,0.00,,---,0.00,VWS V14.01,2013-05-30 18:10:00,
2013-05-30 11:15:00,88.6,43.7,29.91,SE,133,0.0,3.0,21,0.00,,---,0.00,VWS V14.01,2013-05-30 18:15:00,
2013-05-30 11:20:00,88.9,45.2,29.91,West,261,6.0,6.0,22,0.00,,---,0.00,VWS V14.01,2013-05-30 18:20:00,
2013-05-30 11:25:00,88.8,43.9,29.91,WNW,292,2.0,4.0,21,0.00,,---,0.00,VWS V14.01,2013-05-30 18:25:00,
2013-05-30 11:30:00,88.9,42.7,29.91,WNW,302,0.0,4.0,20,0.00,,---,0.00,VWS V14.01,2013-05-30 18:30:00,
2013-05-30 11:35:00,89.2,42.9,29.91,WNW,300,3.0,7.0,20,0.00,,---,0.00,VWS V14.01,2013-05-30 18:35:00,
2013-05-30 11:40:00,88.8,41.3,29.91,WNW,296,0.0,0.0,19,0.00,,---,0.00,VWS V14.01,2013-05-30 18:40:00,
2013-05-30 11:45:00,89.0,44.0,29.91,West,263,2.0,6.0,21,0.00,,---,0.00,VWS V14.01,2013-05-30 18:45:00,
2013-05-30 11:50:00,89.4,43.1,29.91,SW,233,5.0,5.0,20,0.00,,---,0.00,VWS V14.01,2013-05-30 18:50:00,
2013-05-30 11:55:00,89.6,41.9,29.91,West,275,0.0,2.0,19,0.00,,---,0.00,VWS V14.01,2013-05-30 18:55:00,
2013-05-30 12:00:00,89.2,42.9,29.90,West,269,1.0,7.0,20,0.00,,---,0.00,VWS V14.01,2013-05-30 19:00:00,
2013-05-30 12:05:00,89.5,43.2,29.90,ESE,104,2.0,3.0,20,0.00,,---,0.00,VWS V14.01,2013-05-30 19:05:00,
2013-05-30 12:10:00,89.8,42.1,29.90,West,272,0.0,5.0,19,0.00,,---,0.00,VWS V14.01,2013-05-30 19:10:00,
2013-05-30 12:15:00,89.9,42.2,29.90,SSW,199,0.0,4.0,19,0.00,,---,0.00,VWS V14.01,2013-05-30 19:15:00,
2013-05-30 12:20:00,89.6,43.3,29.90,WNW,298,8.0,11.0,20,0.00,,---,0.00,VWS V14.01,2013-05-30 19:20:00,
2013-05-30 12:25:00,89.7,42.0,29.90,WNW,293,4.0,9.0,19,0.00,,---,0.00,VWS V14.01,2013-05-30 19:25:00,
2013-05-30 12:30:00,90.0,42.2,29.90,SW,226,3.0,6.0,19,0.00,,---,0.00,VWS V14.01,2013-05-30 19:30:00,
2013-05-30 12:35:00,90.7,42.8,29.90,WSW,242,2.0,4.0,19,0.00,,---,0.00,VWS V14.01,2013-05-30 19:35:00,
2013-05-30 12:40:00,90.9,41.6,29.89,WNW,295,3.0,3.0,18,0.00,,---,0.00,VWS V14.01,2013-05-30 19:40:00,
2013-05-30 12:45:00,90.9,41.6,29.89,SSW,211,0.0,10.0,18,0.00,,---,0.00,VWS V14.01,2013-05-30 19:45:00,
2013-05-30 12:50:00,90.9,40.1,29.89,SW,223,6.0,11.0,17,0.00,,---,0.00,VWS V14.01,2013-05-30 19:50:00,
2013-05-30 12:55:00,91.3,40.4,29.89,SSW,205,6.0,7.0,17,0.00,,---,0.00,VWS V14.01,2013-05-30 19:55:00,
2013-05-30 13:00:00,91.4,40.5,29.89,West,271,4.0,5.0,17,0.00,,---,0.00,VWS V14.01,2013-05-30 20:00:00,
2013-05-30 13:05:00,91.7,39.2,29.89,SW,220,8.0,8.0,16,0.00,,---,0.00,VWS V14.01,2013-05-30 20:05:00,
2013-05-30 13:10:00,91.9,40.9,29.88,WSW,239,0.0,3.0,17,0.00,,---,0.00,VWS V14.01,2013-05-30 20:10:00,
2013-05-30 13:15:00,92.0,39.4,29.88,WSW,244,10.0,11.0,16,0.00,,---,0.00,VWS V14.01,2013-05-30 20:15:00,
2013-05-30 13:20:00,92.0,41.0,29.88,WSW,242,3.0,5.0,17,0.00,,---,0.00,VWS V14.01,2013-05-30 20:20:00,
2013-05-30 13:25:00,92.5,38.2,29.88,WNW,288,4.0,10.0,15,0.00,,---,0.00,VWS V14.01,2013-05-30 20:25:00,
2013-05-30 13:30:00,92.6,38.3,29.88,SW,232,3.0,6.0,15,0.00,,---,0.00,VWS V14.01,2013-05-30 20:30:00,
2013-05-30 13:35:00,93.2,37.0,29.87,West,272,4.0,7.0,14,0.00,,---,0.00,VWS V14.01,2013-05-30 20:35:00,
2013-05-30 13:40:00,93.3,37.0,29.87,West,263,4.0,7.0,14,0.00,,---,0.00,VWS V14.01,2013-05-30 20:40:00,
2013-05-30 13:45:00,93.5,39.0,29.87,West,273,0.0,1.0,15,0.00,,---,0.00,VWS V14.01,2013-05-30 20:45:00,
2013-05-30 13:50:00,93.6,37.3,29.87,WSW,252,3.0,7.0,14,0.00,,---,0.00,VWS V14.01,2013-05-30 20:50:00,
2013-05-30 13:55:00,93.2,37.0,29.87,WSW,245,3.0,7.0,14,0.00,,---,0.00,VWS V14.01,2013-05-30 20:55:00,
2013-05-30 14:00:00,93.3,37.0,29.87,SW,219,0.0,2.0,14,0.00,,---,0.00,VWS V14.01,2013-05-30 21:00:00,
2013-05-30 14:05:00,93.8,37.5,29.87,WSW,255,0.0,9.0,14,0.00,,---,0.00,VWS V14.01,2013-05-30 21:05:00,
2013-05-30 14:10:00,94.0,35.7,29.86,NNE,31,2.0,5.0,13,0.00,,---,0.00,VWS V14.01,2013-05-30 21:10:00,
2013-05-30 14:15:00,94.4,36.0,29.86,WSW,250,4.0,11.0,13,0.00,,---,0.00,VWS V14.01,2013-05-30 21:15:00,
2013-05-30 14:20:00,94.4,36.0,29.86,SSW,213,3.0,12.0,13,0.00,,---,0.00,VWS V14.01,2013-05-30 21:20:00,
2013-05-30 14:25:00,95.0,34.5,29.86,WNW,284,4.0,4.0,12,0.00,,---,0.00,VWS V14.01,2013-05-30 21:25:00,
2013-05-30 14:30:00,95.1,34.6,29.86,West,261,2.0,6.0,12,0.00,,---,0.00,VWS V14.01,2013-05-30 21:30:00,
2013-05-30 14:35:00,95.4,36.8,29.86,WNW,291,2.0,7.0,13,0.00,,---,0.00,VWS V14.01,2013-05-30 21:35:00,
2013-05-30 14:40:00,95.8,35.1,29.86,West,278,2.0,4.0,12,0.00,,---,0.00,VWS V14.01,2013-05-30 21:40:00,
2013-05-30 14:45:00,95.5,34.9,29.86,WNW,298,5.0,12.0,12,0.00,,---,0.00,VWS V14.01,2013-05-30 21:45:00,
2013-05-30 14:50:00,95.3,34.7,29.86,WNW,296,9.0,12.0,12,0.00,,---,0.00,VWS V14.01,2013-05-30 21:50:00,
2013-05-30 14:55:00,94.5,36.1,29.85,NW,318,1.0,8.0,13,0.00,,---,0.00,VWS V14.01,2013-05-30 21:55:00,
2013-05-30 15:00:00,94.6,36.2,29.85,SW,231,3.0,7.0,13,0.00,,---,0.00,VWS V14.01,2013-05-30 22:00:00,
2013-05-30 15:05:00,95.5,34.9,29.85,WNW,294,3.0,11.0,12,0.00,,---,0.00,VWS V14.01,2013-05-30 22:05:00,
2013-05-30 15:10:00,95.4,34.8,29.85,SSW,210,2.0,5.0,12,0.00,,---,0.00,VWS V14.01,2013-05-30 22:10:00,
2013-05-30 15:15:00,95.2,36.7,29.84,WNW,292,4.0,6.0,13,0.00,,---,0.00,VWS V14.01,2013-05-30 22:15:00,
2013-05-30 15:20:00,95.0,36.5,29.84,WSW,248,7.0,7.0,13,0.00,,---,0.00,VWS V14.01,2013-05-30 22:20:00,
2013-05-30 15:25:00,95.1,36.6,29.84,WSW,254,13.0,14.0,13,0.00,,---,0.00,VWS V14.01,2013-05-30 22:25:00,
2013-05-30 15:30:00,94.9,36.4,29.84,WSW,249,0.0,5.0,13,0.00,,---,0.00,VWS V14.01,2013-05-30 22:30:00,
2013-05-30 15:35:00,94.7,36.3,29.84,NNW,338,4.0,4.0,13,0.00,,---,0.00,VWS V14.01,2013-05-30 22:35:00,
2013-05-30 15:40:00,94.6,38.1,29.84,ENE,74,0.0,2.0,14,0.00,,---,0.00,VWS V14.01,2013-05-30 22:40:00,
2013-05-30 15:45:00,94.7,36.3,29.83,SSW,207,3.0,4.0,13,0.00,,---,0.00,VWS V14.01,2013-05-30 22:45:00,
2013-05-30 15:50:00,94.7,38.2,29.83,NNW,340,1.0,1.0,14,0.00,,---,0.00,VWS V14.01,2013-05-30 22:50:00,
2013-05-30 15:55:00,95.1,36.6,29.83,NNW,328,6.0,9.0,13,0.00,,---,0.00,VWS V14.01,2013-05-30 22:55:00,
2013-05-30 16:00:00,95.4,38.7,29.83,NNW,329,1.0,4.0,14,0.00,,---,0.00,VWS V14.01,2013-05-30 23:00:00,
2013-05-30 16:05:00,95.4,36.8,29.83,NW,305,8.0,17.0,13,0.00,,---,0.00,VWS V14.01,2013-05-30 23:05:00,
2013-05-30 16:10:00,95.4,36.8,29.83,SW,234,6.0,11.0,13,0.00,,---,0.00,VWS V14.01,2013-05-30 23:10:00,
2013-05-30 16:15:00,95.0,36.5,29.82,WSW,246,0.0,4.0,13,0.00,,---,0.00,VWS V14.01,2013-05-30 23:15:00,
2013-05-30 16:20:00,94.6,38.1,29.82,WSW,238,1.0,2.0,14,0.00,,---,0.00,VWS V14.01,2013-05-30 23:20:00,
2013-05-30 16:25:00,95.2,36.7,29.82,West,261,2.0,6.0,13,0.00,,---,0.00,VWS V14.01,2013-05-30 23:25:00,
2013-05-30 16:30:00,95.5,36.9,29.82,West,264,3.0,8.0,13,0.00,,---,0.00,VWS V14.01,2013-05-30 23:30:00,
2013-05-30 16:35:00,95.8,37.1,29.82,West,279,0.0,6.0,13,0.00,,---,0.00,VWS V14.01,2013-05-30 23:35:00,
2013-05-30 16:40:00,95.9,37.2,29.82,WNW,290,5.0,11.0,13,0.00,,---,0.00,VWS V14.01,2013-05-30 23:40:00,
2013-05-30 16:45:00,95.9,37.2,29.82,WNW,298,2.0,4.0,13,0.00,,---,0.00,VWS V14.01,2013-05-30 23:45:00,
2013-05-30 16:50:00,95.4,36.8,29.82,West,269,0.0,0.0,13,0.00,,---,0.00,VWS V14.01,2013-05-30 23:50:00,
2013-05-30 16:55:00,95.5,36.9,29.81,WNW,300,8.0,9.0,13,0.00,,---,0.00,VWS V14.01,2013-05-30 23:55:00,
2013-05-30 17:00:00,95.5,36.9,29.81,WNW,296,4.0,10.0,13,0.00,,---,0.00,VWS V14.01,2013-05-31 00:00:00,
2013-05-30 17:05:00,95.7,37.0,29.81,NE,53,0.0,3.0,13,0.00,,---,0.00,VWS V14.01,2013-05-31 00:05:00,
2013-05-30 17:10:00,95.8,37.1,29.81,NW,315,3.0,3.0,13,0.00,,---,0.00,VWS V14.01,2013-05-31 00:10:00,
2013-05-30 17:15:00,95.5,36.9,29.81,West,263,10.0,13.0,13,0.00,,---,0.00,VWS V14.01,2013-05-31 00:15:00,
2013-05-30 17:20:00,95.2,36.7,29.81,NW,306,7.0,7.0,13,0.00,,---,0.00,VWS V14.01,2013-05-31 00:20:00,
2013-05-30 17:25:00,95.3,36.7,29.81,WNW,286,2.0,4.0,13,0.00,,---,0.00,VWS V14.01,2013-05-31 00:25:00,
2013-05-30 17:30:00,95.3,36.7,29.81,WSW,241,0.0,1.0,13,0.00,,---,0.00,VWS V14.01,2013-05-31 00:30:00,
2013-05-30 17:35:00,95.5,36.9,29.81,WNW,292,9.0,9.0,13,0.00,,---,0.00,VWS V14.01,2013-05-31 00:35:00,
2013-05-30 17:40:00,95.6,37.0,29.81,West,261,0.0,2.0,13,0.00,,---,0.00,VWS V14.01,2013-05-31 00:40:00,
2013-05-30 17:45:00,95.5,36.9,29.81,West,272,1.0,4.0,13,0.00,,---,0.00,VWS V14.01,2013-05-31 00:45:00,
2013-05-30 17:50:00,95.3,36.7,29.81,West,267,0.0,3.0,13,0.00,,---,0.00,VWS V14.01,2013-05-31 00:50:00,
2013-05-30 17:55:00,94.8,36.3,29.81,WNW,283,0.0,2.0,13,0.00,,---,0.00,VWS V14.01,2013-05-31 00:55:00,
2013-05-30 18:00:00,94.6,38.1,29.81,WSW,252,1.0,1.0,14,0.00,,---,0.00,VWS V14.01,2013-05-31 01:00:00,
2013-05-30 18:05:00,94.7,36.3,29.81,WNW,293,3.0,8.0,13,0.00,,---,0.00,VWS V14.01,2013-05-31 01:05:00,
2013-05-30 18:10:00,94.4,36.0,29.80,West,271,6.0,9.0,13,0.00,,---,0.00,VWS V14.01,2013-05-31 01:10:00,
2013-05-30 18:15:00,94.1,35.8,29.81,WSW,240,0.0,9.0,13,0.00,,---,0.00,VWS V14.01,2013-05-31 01:15:00,
2013-05-30 18:20:00,93.8,35.6,29.80,WNW,294,2.0,8.0,13,0.00,,---,0.00,VWS V14.01,2013-05-31 01:20:00,
2013-05-30 18:25:00,93.7,35.5,29.81,WNW,292,4.0,4.0,13,0.00,,---,0.00,VWS V14.01,2013-05-31 01:25:00,
2013-05-30 18:30:00,93.6,35.4,29.81,West,264,0.0,1.0,13,0.00,,---,0.00,VWS V14.01,2013-05-31 01:30:00,
2013-05-30 18:35:00,93.5,35.3,29.81,WSW,249,0.0,0.0,13,0.00,,---,0.00,VWS V14.01,2013-05-31 01:35:00,
2013-05-30 18:40:00,93.3,35.2,29.81,NW,304,1.0,8.0,13,0.00,,---,0.00,VWS V14.01,2013-05-31 01:40:00,
2013-05-30 18:45:00,93.1,35.0,29.81,SW,232,2.0,2.0,13,0.00,,---,0.00,VWS V14.01,2013-05-31 01:45:00,
2013-05-30 18:50:00,92.8,34.8,29.81,NW,315,2.0,2.0,13,0.00,,---,0.00,VWS V14.01,2013-05-31 01:50:00,
2013-05-30 18:55:00,92.4,34.5,29.81,WNW,292,3.0,6.0,13,0.00,,---,0.00,VWS V14.01,2013-05-31 01:55:00,
2013-05-30 19:00:00,91.9,36.0,29.82,West,273,0.0,8.0,14,0.00,,---,0.00,VWS V14.01,2013-05-31 02:00:00,
2013-05-30 19:05:00,91.5,35.6,29.82,NW,307,1.0,5.0,14,0.00,,---,0.00,VWS V14.01,2013-05-31 02:05:00,
2013-05-30 19:10:00,91.1,35.3,29.82,West,269,2.0,2.0,14,0.00,,---,0.00,VWS V14.01,2013-05-31 02:10:00,
2013-05-30 19:15:00,90.8,35.1,29.82,WNW,287,0.0,1.0,14,0.00,,---,0.00,VWS V14.01,2013-05-31 02:15:00,
2013-05-30 19:20:00,90.4,36.5,29.82,WNW,292,1.0,5.0,15,0.00,,---,0.00,VWS V14.01,2013-05-31 02:20:00,
2013-05-30 19:25:00,90.1,36.3,29.82,WNW,285,0.0,1.0,15,0.00,,---,0.00,VWS V14.01,2013-05-31 02:25:00,
2013-05-30 19:30:00,89.8,36.0,29.83,West,277,0.0,0.0,15,0.00,,---,0.00,VWS V14.01,2013-05-31 02:30:00,
2013-05-30 19:35:00,89.3,35.6,29.83,West,273,1.0,1.0,15,0.00,,---,0.00,VWS V14.01,2013-05-31 02:35:00,
2013-05-30 19:40:00,88.9,35.3,29.83,West,265,0.0,0.0,15,0.00,,---,0.00,VWS V14.01,2013-05-31 02:40:00,
2013-05-30 19:45:00,88.6,35.1,29.83,WSW,257,0.0,1.0,15,0.00,,---,0.00,VWS V14.01,2013-05-31 02:45:00,
2013-05-30 19:50:00,88.3,34.8,29.83,WNW,285,0.0,1.0,15,0.00,,---,0.00,VWS V14.01,2013-05-31 02:50:00,
2013-05-30 19:55:00,88.0,36.2,29.83,WNW,289,0.0,0.0,16,0.00,,---,0.00,VWS V14.01,2013-05-31 02:55:00,
2013-05-30 20:00:00,87.6,35.9,29.83,WNW,283,0.0,1.0,16,0.00,,---,0.00,VWS V14.01,2013-05-31 03:00:00,
2013-05-30 20:05:00,87.3,35.7,29.83,West,259,0.0,1.0,16,0.00,,---,0.00,VWS V14.01,2013-05-31 03:05:00,
2013-05-30 20:10:00,87.2,37.1,29.84,West,277,0.0,4.0,17,0.00,,---,0.00,VWS V14.01,2013-05-31 03:10:00,
2013-05-30 20:15:00,87.1,37.0,29.84,West,270,0.0,0.0,17,0.00,,---,0.00,VWS V14.01,2013-05-31 03:15:00,
2013-05-30 20:20:00,87.0,37.0,29.84,West,279,0.0,0.0,17,0.00,,---,0.00,VWS V14.01,2013-05-31 03:20:00,
2013-05-30 20:25:00,86.8,36.8,29.84,West,277,0.0,1.0,17,0.00,,---,0.00,VWS V14.01,2013-05-31 03:25:00,
2013-05-30 20:30:00,86.7,36.7,29.85,WNW,294,4.0,4.0,17,0.00,,---,0.00,VWS V14.01,2013-05-31 03:30:00,
2013-05-30 20:35:00,86.6,36.6,29.85,West,271,0.0,0.0,17,0.00,,---,0.00,VWS V14.01,2013-05-31 03:35:00,
2013-05-30 20:40:00,86.5,36.6,29.85,West,261,0.0,0.0,17,0.00,,---,0.00,VWS V14.01,2013-05-31 03:40:00,
2013-05-30 20:45:00,86.2,36.3,29.85,West,267,0.0,0.0,17,0.00,,---,0.00,VWS V14.01,2013-05-31 03:45:00,
2013-05-30 20:50:00,85.8,36.0,29.85,West,267,0.0,0.0,17,0.00,,---,0.00,VWS V14.01,2013-05-31 03:50:00,
2013-05-30 20:55:00,85.4,35.7,29.86,WSW,238,2.0,2.0,17,0.00,,---,0.00,VWS V14.01,2013-05-31 03:55:00,
2013-05-30 21:00:00,85.2,35.5,29.86,West,265,0.0,1.0,17,0.00,,---,0.00,VWS V14.01,2013-05-31 04:00:00,
2013-05-30 21:01:00,85.1,35.4,29.86,West,267,0.0,1.0,17,0.00,,---,0.00,VWS V14.01,2013-05-31 04:01:00,
2013-05-30 21:06:00,85.0,35.3,29.86,WSW,248,1.0,1.0,17,0.00,,---,0.00,VWS V14.01,2013-05-31 04:06:00,
2013-05-30 21:11:00,84.8,36.6,29.86,West,269,0.0,1.0,18,0.00,,---,0.00,VWS V14.01,2013-05-31 04:11:00,
2013-05-30 21:16:00,84.6,35.0,29.87,WSW,238,1.0,1.0,17,0.00,,---,0.00,VWS V14.01,2013-05-31 04:16:00,
2013-05-30 21:21:00,84.6,35.0,29.87,WSW,238,1.0,5.0,17,0.00,,---,0.00,VWS V14.01,2013-05-31 04:21:00,
2013-05-30 21:26:00,84.9,35.3,29.87,WNW,298,2.0,6.0,17,0.00,,---,0.00,VWS V14.01,2013-05-31 04:26:00,
2013-05-30 21:31:00,85.3,37.0,29.88,West,261,2.0,7.0,18,0.00,,---,0.00,VWS V14.01,2013-05-31 04:31:00,
2013-05-30 21:36:00,85.6,37.3,29.88,West,261,0.0,1.0,18,0.00,,---,0.00,VWS V14.01,2013-05-31 04:36:00,
2013-05-30 21:41:00,85.4,37.1,29.88,West,279,0.0,1.0,18,0.00,,---,0.00,VWS V14.01,2013-05-31 04:41:00,
2013-05-30 21:46:00,85.1,38.2,29.88,West,278,0.0,1.0,19,0.00,,---,0.00,VWS V14.01,2013-05-31 04:46:00,
2013-05-30 21:51:00,84.8,39.3,29.89,WSW,251,0.0,3.0,20,0.00,,---,0.00,VWS V14.01,2013-05-31 04:51:00,
2013-05-30 21:56:00,84.5,40.3,29.89,West,262,3.0,7.0,21,0.00,,---,0.00,VWS V14.01,2013-05-31 04:56:00,
2013-05-30 22:01:00,84.4,41.4,29.89,WNW,292,7.0,7.0,22,0.00,,---,0.00,VWS V14.01,2013-05-31 05:01:00,
2013-05-30 22:06:00,84.4,43.7,29.89,WNW,295,4.0,10.0,24,0.00,,---,0.00,VWS V14.01,2013-05-31 05:06:00,
2013-05-30 22:11:00,84.4,45.8,29.89,WSW,246,7.0,8.0,26,0.00,,---,0.00,VWS V14.01,2013-05-31 05:11:00,
2013-05-30 22:16:00,84.3,45.7,29.89,West,272,1.0,8.0,26,0.00,,---,0.00,VWS V14.01,2013-05-31 05:16:00,
2013-05-30 22:21:00,84.1,47.5,29.89,WSW,250,0.0,6.0,28,0.00,,---,0.00,VWS V14.01,2013-05-31 05:21:00,
2013-05-30 22:26:00,83.8,49.1,29.89,WNW,301,1.0,8.0,30,0.00,,---,0.00,VWS V14.01,2013-05-31 05:26:00,
2013-05-30 22:31:00,83.5,50.6,29.89,West,264,4.0,8.0,32,0.00,,---,0.00,VWS V14.01,2013-05-31 05:31:00,
2013-05-30 22:36:00,83.2,51.1,29.89,WSW,244,0.0,6.0,33,0.00,,---,0.00,VWS V14.01,2013-05-31 05:36:00,
2013-05-30 22:41:00,83.0,51.0,29.89,WNW,296,3.0,9.0,33,0.00,,---,0.00,VWS V14.01,2013-05-31 05:41:00,
2013-05-30 22:46:00,82.8,51.6,29.89,WNW,288,2.0,5.0,34,0.00,,---,0.00,VWS V14.01,2013-05-31 05:46:00,
2013-05-30 22:51:00,82.7,51.5,29.89,West,279,3.0,7.0,34,0.00,,---,0.00,VWS V14.01,2013-05-31 05:51:00,
2013-05-30 22:56:00,82.4,52.0,29.89,WSW,246,4.0,8.0,35,0.00,,---,0.00,VWS V14.01,2013-05-31 05:56:00,
2013-05-30 23:01:00,82.2,52.6,29.89,WSW,254,5.0,6.0,36,0.00,,---,0.00,VWS V14.01,2013-05-31 06:01:00,
2013-05-30 23:06:00,82.1,51.0,29.89,WNW,302,3.0,14.0,34,0.00,,---,0.00,VWS V14.01,2013-05-31 06:06:00,
2013-05-30 23:11:00,82.1,51.0,29.89,SW,234,2.0,8.0,34,0.00,,---,0.00,VWS V14.01,2013-05-31 06:11:00,
2013-05-30 23:16:00,81.9,51.6,29.89,WNW,286,0.0,9.0,35,0.00,,---,0.00,VWS V14.01,2013-05-31 06:16:00,
2013-05-30 23:21:00,81.6,52.1,29.89,SSW,205,4.0,5.0,36,0.00,,---,0.00,VWS V14.01,2013-05-31 06:21:00,
2013-05-30 23:26:00,81.4,51.9,29.90,West,263,0.0,4.0,36,0.00,,---,0.00,VWS V14.01,2013-05-31 06:26:00,
2013-05-30 23:31:00,81.3,51.1,29.90,West,271,0.0,5.0,35,0.00,,---,0.00,VWS V14.01,2013-05-31 06:31:00,
2013-05-30 23:36:00,81.3,51.1,29.90,WNW,289,2.0,2.0,35,0.00,,---,0.00,VWS V14.01,2013-05-31 06:36:00,
2013-05-30 23:41:00,81.3,52.6,29.90,WSW,252,0.0,5.0,37,0.00,,---,0.00,VWS V14.01,2013-05-31 06:41:00,
2013-05-30 23:46:00,81.2,52.5,29.90,West,261,0.0,4.0,37,0.00,,---,0.00,VWS V14.01,2013-05-31 06:46:00,
2013-05-30 23:51:00,81.1,53.1,29.90,WSW,247,0.0,7.0,38,0.00,,---,0.00,VWS V14.01,2013-05-31 06:51:00,
2013-05-30 23:56:00,81.0,53.7,29.90,SW,216,2.0,8.0,39,0.00,,---,0.00,VWS V14.01,2013-05-31 06:56:00,